Overview Statistics Trail Chart Weather Telemetry Raw packets
 

This is the latest recevied weather packets stored in our database for station/object HB9FHL-13. If no packets are shown the sender has not sent any weather packets the latest 10 day(s).

<< 52 53 54 55 56 57 58 >>
Time Temp. Humidity Pressure Rain* Wind** Luminosity Snow
1788363873 22.22° C - 1023.6 hPa 0 mm - - -
1788363573 22.22° C - 1020.2 hPa 0 mm - - -
1788363272 22.78° C - 1022.6 hPa 0 mm - - -
1788362972 22.78° C - 1019.3 hPa 0 mm - - -
1788362671 22.22° C - 1024.4 hPa 0 mm - - -
1788362370 23.33° C - 1021.3 hPa 0 mm - - -
1788362070 22.78° C - 1022.7 hPa 0 mm - - -
1788361769 23.33° C - 1021.2 hPa 0 mm - - -
1788361469 23.33° C - 1024.3 hPa 0 mm - - -
1788361168 23.33° C - 1021.4 hPa 0 mm - - -
1788360868 23.89° C - 1019.8 hPa 0 mm - - -
1788360567 23.89° C - 1021.5 hPa 0 mm - - -
1788360266 22.78° C - 1026.3 hPa 0 mm - - -
1788359966 22.78° C - 1020.2 hPa 0 mm - - -
1788359666 23.33° C - 1019.2 hPa 0 mm - - -
1788359365 22.78° C - 1019.8 hPa 0 mm - - -
1788359064 22.78° C - 1023.4 hPa 0 mm - - -
1788358764 23.89° C - 1025.1 hPa 0 mm - - -
1788358460 23.33° C - 1026.2 hPa 0 mm - - -
1788358165 23.33° C - - - - - -
1788358160 23.33° C - 1020.5 hPa 0 mm - - -
1788357859 23.33° C - 1022.1 hPa 0 mm - - -
1788357559 22.78° C - 1021.8 hPa 0 mm - - -
1788357258 23.33° C - 1021 hPa 0 mm - - -
1788356958 22.22° C - 1021.1 hPa 0 mm - - -

* Rain since midnight (hover to see other rain measurements)
** Current wind speed in m/s (hover to see current wind gust speed)